Hourly Data Report for October 04, 2017

All times are specified in Local Standard Time (LST). Add 1 hour to adjust for Daylight Saving Time where and when it is observed.

HOLMAN CS
NORTHWEST TERRITORIES

70°45'41.002" N
117°48'00.002" W
29.90 m
2502505
71029
XHI

Download Data

Hourly Data (October 2017)
Hourly Data Report for October 4, 2017
Temp Definition
°C
Dew Point Temp Definition
°C
Rel Hum Definition
%
Wind Dir Definition
10's deg

Wind Spd Definition
km/h
Visibility Definition
km
Stn Press Definition
kPa
Hmdx Definition


Wind Chill Definition


Weather Definition


TIME
00:00 -8.6 -9.9 90 35 17   101.77   -15 LegendNANA
01:00 -7.8 -8.6 94 1 19   101.80   -15 LegendNANA
02:00 -7.8 -8.7 94 36 18   101.82   -15 LegendNANA
03:00 -8.4 -9.3 93 1 18   101.83   -15 LegendNANA
04:00 -9.0 -10.2 91 1 13   101.88   -15 LegendNANA
05:00 -10.6 -11.8 91 1 15   101.93   -17 LegendNANA
06:00 -9.4 -10.6 91 2 16   101.92   -16 LegendNANA
07:00 -8.6 -10.1 89 3 19   101.94   -16 LegendNANA
08:00 -8.5 -9.8 90 5 13   101.94   -14 LegendNANA
09:00 -8.2 -9.6 90 1 15   101.94   -15 LegendNANA
10:00 -7.8 -9.4 88 2 10   101.96   -13 LegendNANA
11:00 -8.3 -10.0 87 36 13   101.95   -14 LegendNANA
12:00 -7.9 -9.6 87 2 11   101.96   -13 LegendNANA
13:00 -7.0 -9.4 83 1 15   101.96   -13 LegendNANA
14:00 -7.6 -10.0 83 36 12   101.95   -13 LegendNANA
15:00 -7.9 -10.5 82 2 10   101.93   -13 LegendNANA
16:00 -7.8 -10.4 82 2 18   101.91   -15 LegendNANA
17:00 -8.0 -10.0 85 5 19   101.87   -15 LegendNANA
18:00 -8.6 -10.9 84 7 14   101.83   -15 LegendNANA
19:00 -9.2 -11.3 85 7 3   101.78   -11 LegendNANA
20:00 -10.6 -11.9 90 2 8   101.77   -15 LegendNANA
21:00 -10.0 -11.6 88 5 9   101.69   -15 LegendNANA
22:00 -10.9 -12.9 85 5 9   101.64   -16 LegendNANA
23:00 -10.0 -11.5 89 5 10   101.62   -15 LegendNANA

Notes on Data Quality.

Legend

  • E = Estimated
  • M = Missing
  • NA = Not Available
  • ‡ = Partner data that is not subject to review by the National Climate Archives
Date modified: